| time (UTC) | temp F | wind direction | speed knots | gust knots | rain 1hr in | rain 24hr in | rain mn in | humidity % | barometer mb |
| 20260507211535 | 42 | 0 | 0.0 | 0.0 | 0.00 | 0.03 | 0.03 | 85 | 1009.0 |
| 20260507210050 | 42 | 0 | 0.0 | 0.0 | 0.00 | 0.03 | 0.03 | 84 | 1009.0 |
| 20260507204555 | 43 | 0 | 0.0 | 1.7 | 0.00 | 0.03 | 0.03 | 84 | 1009.1 |
| 20260507203036 | 43 | 0 | 0.0 | 0.0 | 0.00 | 0.03 | 0.03 | 83 | 1009.0 |
| 20260507201540 | 42 | 0 | 0.0 | 0.0 | 0.00 | 0.03 | 0.03 | 84 | 1008.8 |
| 20260507200040 | 42 | 0 | 0.0 | 0.0 | 0.00 | 0.03 | 0.03 | 84 | 1008.7 |
| 20260507194543 | 42 | 0 | 0.0 | 0.0 | 0.00 | 0.03 | 0.03 | 83 | 1008.5 |
| 20260507193039 | 43 | 0 | 0.0 | 0.0 | 0.00 | 0.03 | 0.03 | 82 | 1008.2 |
| 20260507191538 | 43 | 0 | 0.0 | 0.0 | 0.00 | 0.03 | 0.03 | 81 | 1008.2 |
| 20260507190043 | 44 | 0 | 0.0 | 0.0 | 0.00 | 0.03 | 0.03 | 80 | 1008.1 |
| 20260507184539 | 44 | 0 | 0.0 | 2.6 | 0.00 | 0.03 | 0.03 | 79 | 1008.1 |
| 20260507183041 | 45 | 0 | 0.0 | 0.0 | 0.00 | 0.03 | 0.03 | 80 | 1008.0 |
| 20260507181540 | 45 | 0 | 0.0 | 0.0 | 0.00 | 0.03 | 0.03 | 78 | 1007.9 |
| 20260507180047 | 46 | 0 | 0.0 | 0.0 | 0.00 | 0.03 | 0.03 | 77 | 1007.9 |
| 20260507174540 | 47 | 0 | 0.0 | 0.0 | 0.00 | 0.03 | 0.03 | 75 | 1007.9 |
| 20260507173037 | 48 | 0 | 0.0 | 0.0 | 0.00 | 0.03 | 0.03 | 73 | 1007.9 |
| 20260507171536 | 49 | 0 | 0.0 | 0.0 | 0.00 | 0.03 | 0.03 | 72 | 1007.7 |
| 20260507170036 | 49 | 0 | 0.0 | 0.0 | 0.00 | 0.03 | 0.03 | 66 | 1007.9 |
| 20260507164539 | 50 | 0 | 0.0 | 5.2 | 0.00 | 0.03 | 0.03 | 65 | 1007.7 |
| 20260507163038 | 51 | 0 | 0.0 | 5.2 | 0.00 | 0.03 | 0.03 | 65 | 1007.8 |
| 20260507161539 | 51 | 0 | 0.0 | 6.1 | 0.00 | 0.03 | 0.03 | 65 | 1007.8 |
| 20260507160039 | 51 | 0 | 0.0 | 5.2 | 0.00 | 0.03 | 0.03 | 66 | 1007.8 |
| 20260507154541 | 51 | 188 | 1.7 | 6.1 | 0.00 | 0.03 | 0.03 | 64 | 1007.7 |
| 20260507153045 | 51 | 0 | 0.0 | 4.3 | 0.00 | 0.03 | 0.03 | 65 | 1007.7 |
| 20260507151534 | 51 | 180 | 0.0 | 6.1 | 0.00 | 0.03 | 0.03 | 65 | 1007.7 |
| 20260507150038 | 51 | 187 | 0.0 | 7.8 | 0.00 | 0.03 | 0.03 | 64 | 1007.8 |
| 20260507144537 | 50 | 0 | 0.9 | 4.3 | 0.00 | 0.06 | 0.03 | 66 | 1007.8 |
| 20260507143038 | 52 | 0 | 0.0 | 5.2 | 0.00 | 0.06 | 0.03 | 65 | 1007.9 |
| 20260507141536 | 52 | 0 | 0.0 | 7.8 | 0.00 | 0.06 | 0.03 | 67 | 1007.8 |
| 20260507140048 | 52 | 0 | 2.6 | 7.8 | 0.00 | 0.06 | 0.03 | 66 | 1008.0 |
| 20260507134540 | 51 | 0 | 1.7 | 7.8 | 0.00 | 0.06 | 0.03 | 68 | 1008.1 |
| 20260507133039 | 51 | 196 | 1.7 | 7.8 | 0.00 | 0.06 | 0.03 | 71 | 1008.1 |
| 20260507131538 | 51 | 171 | 3.5 | 9.6 | 0.00 | 0.06 | 0.03 | 71 | 1008.1 |
| 20260507130048 | 50 | 0 | 2.6 | 7.8 | 0.00 | 0.06 | 0.03 | 73 | 1008.0 |
| 20260507124543 | 50 | 192 | 3.5 | 7.8 | 0.00 | 0.06 | 0.03 | 72 | 1008.1 |
| 20260507123047 | 49 | 178 | 3.5 | 9.6 | 0.00 | 0.06 | 0.03 | 69 | 1008.1 |
| 20260507121543 | 51 | 209 | 4.3 | 9.6 | 0.00 | 0.06 | 0.03 | 71 | 1008.0 |
| 20260507120045 | 52 | 178 | 4.3 | 10.4 | 0.00 | 0.06 | 0.03 | 71 | 1007.9 |
| 20260507114543 | 53 | 175 | 3.5 | 8.7 | 0.00 | 0.06 | 0.03 | 70 | 1007.9 |
| 20260507113039 | 52 | 177 | 3.5 | 10.4 | 0.00 | 0.06 | 0.03 | 75 | 1008.1 |
| 20260507111538 | 52 | 0 | 3.5 | 7.8 | 0.00 | 0.06 | 0.03 | 76 | 1008.0 |
| 20260507110038 | 51 | 207 | 2.6 | 9.6 | 0.00 | 0.06 | 0.03 | 79 | 1008.0 |
| 20260507104534 | 50 | 163 | 0.9 | 7.8 | 0.00 | 0.06 | 0.03 | 81 | 1008.0 |
| 20260507103039 | 51 | 182 | 4.3 | 8.7 | 0.00 | 0.06 | 0.03 | 79 | 1008.1 |
| 20260507101545 | 51 | 175 | 1.7 | 6.1 | 0.00 | 0.06 | 0.03 | 80 | 1008.2 |
| 20260507100041 | 50 | 192 | 1.7 | 7.8 | 0.00 | 0.06 | 0.03 | 76 | 1008.1 |
| 20260507094537 | 50 | 175 | 1.7 | 6.1 | 0.00 | 0.11 | 0.03 | 84 | 1008.1 |
| 20260507093039 | 50 | 0 | 0.0 | 5.2 | 0.00 | 0.11 | 0.03 | 84 | 1008.2 |
| 20260507091542 | 48 | 111 | 0.9 | 7.0 | 0.00 | 0.11 | 0.03 | 84 | 1008.1 |
| 20260507090042 | 48 | 190 | 2.6 | 7.8 | 0.00 | 0.11 | 0.03 | 85 | 1008.1 |
| 20260507084538 | 48 | 155 | 4.3 | 7.8 | 0.00 | 0.35 | 0.03 | 84 | 1008.0 |
| 20260507083046 | 50 | 138 | 0.9 | 5.2 | 0.00 | 0.35 | 0.03 | 79 | 1008.0 |
| 20260507081536 | 50 | 0 | 0.9 | 5.2 | 0.00 | 0.35 | 0.03 | 79 | 1007.9 |
| 20260507080042 | 49 | 0 | 0.9 | 3.5 | 0.00 | 0.35 | 0.03 | 82 | 1007.9 |
| 20260507074544 | 48 | 0 | 0.9 | 4.3 | 0.00 | 0.39 | 0.03 | 86 | 1007.8 |
| 20260507073047 | 46 | 0 | 0.0 | 3.5 | 0.00 | 0.39 | 0.03 | 86 | 1007.8 |
| 20260507071556 | 45 | 123 | 0.0 | 2.6 | 0.00 | 0.39 | 0.03 | 88 | 1007.6 |
| 20260507070038 | 45 | 0 | 0.9 | 5.2 | 0.00 | 0.39 | 0.03 | 91 | 1007.6 |
| 20260507064537 | 43 | 0 | 0.0 | 0.0 | 0.00 | 0.39 | 0.03 | 91 | 1007.6 |
| 20260507063039 | 43 | 0 | 0.0 | 0.0 | 0.00 | 0.39 | 0.03 | 92 | 1007.6 |
| 20260507061536 | 41 | 0 | 0.0 | 1.7 | 0.00 | 0.39 | 0.03 | 92 | 1007.5 |
| 20260507060043 | 40 | 0 | 0.0 | 0.0 | 0.00 | 0.39 | 0.03 | 92 | 1007.5 |
| 20260507054543 | 38 | 0 | 0.0 | 0.0 | 0.00 | 0.39 | 0.03 | 92 | 1007.4 |
| 20260507053043 | 38 | 0 | 0.0 | 0.0 | 0.00 | 0.39 | 0.03 | 92 | 1007.3 |
| 20260507051537 | 38 | 0 | 0.0 | 0.0 | 0.00 | 0.39 | 0.03 | 92 | 1007.1 |
| 20260507050035 | 38 | 0 | 0.0 | 0.0 | 0.00 | 0.39 | 0.03 | 92 | 1006.9 |
| 20260507044534 | 38 | 0 | 0.0 | 0.0 | 0.00 | 0.39 | 0.03 | 92 | 1006.9 |
| 20260507043039 | 38 | 0 | 0.0 | 1.7 | 0.00 | 0.39 | 0.03 | 92 | 1006.9 |
| 20260507041538 | 38 | 0 | 0.0 | 1.7 | 0.00 | 0.39 | 0.03 | 92 | 1006.9 |
| 20260507040048 | 38 | 277 | 0.9 | 2.6 | 0.00 | 0.39 | 0.03 | 92 | 1006.7 |
| 20260507034540 | 38 | 0 | 0.0 | 1.7 | 0.00 | 0.40 | 0.03 | 92 | 1006.7 |
| 20260507033043 | 38 | 0 | 0.0 | 0.0 | 0.00 | 0.40 | 0.03 | 92 | 1006.8 |
| 20260507031539 | 39 | 0 | 0.0 | 0.0 | 0.00 | 0.40 | 0.03 | 92 | 1006.6 |
| 20260507030038 | 39 | 0 | 0.0 | 0.0 | 0.00 | 0.40 | 0.03 | 92 | 1006.7 |
| 20260507024538 | 39 | 0 | 0.0 | 0.0 | 0.00 | 0.40 | 0.03 | 92 | 1006.8 |
| 20260507023037 | 39 | 0 | 0.0 | 0.0 | 0.00 | 0.40 | 0.03 | 92 | 1006.8 |
| 20260507021536 | 39 | 0 | 0.0 | 0.0 | 0.00 | 0.40 | 0.03 | 92 | 1006.6 |
| 20260507020040 | 40 | 0 | 0.0 | 0.0 | 0.01 | 0.40 | 0.03 | 92 | 1006.7 |
| 20260507014538 | 40 | 0 | 0.0 | 0.0 | 0.02 | 0.40 | 0.03 | 92 | 1006.6 |
| 20260507013041 | 40 | 0 | 0.0 | 0.0 | 0.03 | 0.40 | 0.03 | 92 | 1006.5 |
| 20260507011540 | 40 | 0 | 0.0 | 0.0 | 0.03 | 0.40 | 0.03 | 92 | 1006.6 |
| 20260507010038 | 40 | 0 | 0.0 | 0.0 | 0.02 | 0.39 | 0.02 | 92 | 1006.5 |
| 20260507004539 | 40 | 0 | 0.0 | 0.0 | 0.01 | 0.38 | 0.01 | 92 | 1006.5 |
| 20260507003035 | 40 | 0 | 0.0 | 0.0 | 0.00 | 0.37 | 0.00 | 92 | 1006.5 |
| 20260507001550 | 39 | 0 | 0.0 | 0.0 | 0.00 | 0.37 | 0.00 | 92 | 1006.4 |
| 20260507000040 | 39 | 0 | 0.0 | 0.0 | 0.00 | 0.37 | 0.00 | 92 | 1006.3 |
| 20260506234544 | 39 | 0 | 0.0 | 0.0 | 0.00 | 0.38 | 0.00 | 92 | 1006.2 |
| 20260506233038 | 39 | 0 | 0.0 | 0.0 | 0.00 | 0.38 | 0.00 | 92 | 1006.1 |
| 20260506231538 | 39 | 0 | 0.0 | 0.0 | 0.00 | 0.38 | 0.00 | 92 | 1006.2 |
| 20260506230035 | 39 | 0 | 0.0 | 0.0 | 0.00 | 0.38 | 0.00 | 92 | 1006.1 |
| 20260506224543 | 39 | 0 | 0.0 | 0.0 | 0.00 | 0.40 | 0.00 | 91 | 1006.0 |
| 20260506223041 | 39 | 0 | 0.0 | 0.9 | 0.00 | 0.40 | 0.00 | 91 | 1006.2 |
| 20260506221538 | 39 | 0 | 0.0 | 0.0 | 0.00 | 0.40 | 0.00 | 92 | 1006.1 |
| 20260506220051 | 39 | 0 | 0.0 | 0.0 | 0.00 | 0.40 | 0.00 | 92 | 1006.0 |
| 20260506214537 | 39 | 0 | 0.0 | 0.0 | 0.00 | 0.40 | 0.40 | 92 | 1006.1 |
| 20260506213041 | 39 | 0 | 0.0 | 0.0 | 0.00 | 0.40 | 0.40 | 92 | 1006.0 |